Location: Sungai Bunut
(2.6333°N, 113.7333°E)
Time: 20:35:38
(UTC+00:00)

Vanguard 3 - Pass Details

Date: 06 December 2023
Orbit: 508 x 3239 km, 33.4° (Epoch: 24 February)

Event Time Altitude Azimuth Distance (km) Brightness Sun altitude
Rises 23:59:54 0° 265° (W) 2,854 9.5 22.8°
Reaches altitude 10° 00:02:40 10° 242° (WSW) 2,177 9.1 23.4°
Maximum altitude 00:05:52 17° 202° (SSW) 2,063 9.4 24.1°
Drops below altitude 10° 00:10:01 10° 164° (SSE) 2,963 10.7 25.1°
Sets 00:14:50 0° 146° (SE) 4,504 11.9 26.2°
